• In Germany
  • List of Countries
  • For 7 days
  • Water Temperature
  • Satellite Maps
  • Weather Map
  • Weather Widgets
  • user-avatar
    Login

    Hourly Weather Salzburg

    Today, 23 March, Thursday

    Time Temperature Precipitation Wind Pressure Humidity
    00:00 -1°C° 0 mm 2 mps 622 mmHg 97%
    01:00 -2°C° 0 mm 2 mps 622 mmHg 96%
    02:00 -2°C° 0 mm 2 mps 622 mmHg 96%
    03:00 -2°C° 0 mm 2 mps 621 mmHg 96%
    04:00 -2°C° 0 mm 2 mps 621 mmHg 96%
    05:00 -2°C° 0 mm 2 mps 622 mmHg 96%
    06:00 0°C° 0 mm 1 mps 622 mmHg 96%
    07:00 0°C° 0 mm 1 mps 622 mmHg 96%
    08:00 +2°C° 0 mm 1 mps 623 mmHg 93%
    09:00 +3°C° 0 mm 1 mps 623 mmHg 91%
    10:00 +5°C° 0 mm 1 mps 624 mmHg 88%
    11:00 +5°C° 0 mm 1 mps 624 mmHg 86%
    12:00 +6°C° 0 mm 1 mps 624 mmHg 84%
    13:00 +6°C° 0 mm 2 mps 625 mmHg 82%
    14:00 +6°C° 0 mm 2 mps 625 mmHg 83%
    15:00 +6°C° 0 mm 2 mps 625 mmHg 83%
    16:00 +6°C° 0 mm 2 mps 625 mmHg 84%
    17:00 +4°C° 0 mm 2 mps 624 mmHg 88%
    18:00 +3°C° 0 mm 2 mps 624 mmHg 92%
    19:00 +1°C° 0 mm 2 mps 624 mmHg 96%
    20:00 +1°C° 0 mm 2 mps 624 mmHg 95%
    21:00 -1°C° 0 mm 2 mps 625 mmHg 94%
    22:00 -1°C° 0 mm 2 mps 625 mmHg 94%
    23:00 -1°C° 0 mm 2 mps 625 mmHg 93%

    Tomorrow, 24 March, Friday

    Time Temperature Precipitation Wind Pressure Humidity
    00:00 -1°C° 0 mm 2 mps 625 mmHg 93%
    01:00 -1°C° 0 mm 2 mps 625 mmHg 93%
    02:00 -2°C° 0 mm 2 mps 625 mmHg 92%
    03:00 -2°C° 0 mm 2 mps 625 mmHg 91%
    04:00 -2°C° 0 mm 2 mps 625 mmHg 91%
    05:00 -2°C° 0 mm 2 mps 626 mmHg 89%
    06:00 0°C° 0 mm 1 mps 626 mmHg 88%
    07:00 0°C° 0 mm 1 mps 627 mmHg 87%
    08:00 +3°C° 0 mm 1 mps 628 mmHg 83%
    09:00 +5°C° 0 mm 1 mps 629 mmHg 80%
    10:00 +7°C° 0 mm 1 mps 629 mmHg 76%
    11:00 +8°C° 0 mm 1 mps 630 mmHg 74%
    12:00 +9°C° 0 mm 1 mps 630 mmHg 71%
    13:00 +10°C° 0 mm 1 mps 631 mmHg 69%
    14:00 +8°C° 0 mm 2 mps 631 mmHg 72%
    15:00 +8°C° 0 mm 2 mps 630 mmHg 75%
    16:00 +8°C° 0 mm 2 mps 630 mmHg 78%
    17:00 +6°C° 0 mm 2 mps 630 mmHg 84%
    18:00 +3°C° 0 mm 2 mps 629 mmHg 90%
    19:00 +2°C° 0 mm 1 mps 628 mmHg 96%
    20:00 +2°C° 0 mm 1 mps 629 mmHg 96%
    21:00 +2°C° 0 mm 1 mps 629 mmHg 96%
    22:00 +1°C° 0 mm 2 mps 629 mmHg 96%
    23:00 -1°C° 0 mm 2 mps 629 mmHg 96%

    Day after tomorrow, 25 March, Saturday

    Time Temperature Precipitation Wind Pressure Humidity
    00:00 -1°C° 0 mm 2 mps 629 mmHg 95%
    01:00 -1°C° 0 mm 2 mps 629 mmHg 95%
    02:00 -2°C° 0 mm 2 mps 629 mmHg 95%
    03:00 0°C° 0 mm 1 mps 629 mmHg 95%
    04:00 0°C° 0 mm 1 mps 628 mmHg 95%
    05:00 0°C° 0 mm 1 mps 628 mmHg 94%
    06:00 +1°C° 0 mm 1 mps 628 mmHg 94%
    07:00 -1°C° 0 mm 2 mps 629 mmHg 93%
    08:00 +2°C° 0 mm 2 mps 629 mmHg 88%
    09:00 +4°C° 0 mm 2 mps 630 mmHg 83%
    10:00 +5°C° 0 mm 2 mps 630 mmHg 78%
    11:00 +6°C° 0 mm 2 mps 630 mmHg 77%
    12:00 +7°C° 0 mm 2 mps 630 mmHg 75%
    13:00 +8°C° 0 mm 2 mps 630 mmHg 74%
    14:00 +7°C° 0 mm 2 mps 629 mmHg 76%
    15:00 +7°C° 0 mm 2 mps 628 mmHg 78%
    16:00 +7°C° 0 mm 2 mps 628 mmHg 80%
    17:00 +5°C° 0 mm 2 mps 627 mmHg 85%
    18:00 +3°C° 0 mm 2 mps 626 mmHg 90%
    19:00 +1°C° 0 mm 2 mps 625 mmHg 95%
    20:00 +1°C° 0 mm 2 mps 625 mmHg 95%
    21:00 +1°C° 0 mm 2 mps 625 mmHg 95%
    22:00 -1°C° 0 mm 2 mps 625 mmHg 95%
    23:00 -1°C° 0 mm 2 mps 625 mmHg 94%

    26 March, Sunday

    Time Temperature Precipitation Wind Pressure Humidity
    00:00 -1°C° 0 mm 2 mps 624 mmHg 94%
    01:00 0°C° 0 mm 1 mps 624 mmHg 94%
    02:00 0°C° 0 mm 1 mps 623 mmHg 94%
    03:00 -1°C° 0 mm 1 mps 622 mmHg 94%
    04:00 -2°C° 0 mm 1 mps 622 mmHg 94%
    05:00 -1°C° 0 mm 1 mps 622 mmHg 93%
    06:00 -1°C° 0 mm 1 mps 622 mmHg 91%
    07:00 0°C° 0 mm 1 mps 622 mmHg 90%
    08:00 +1°C° 0.3 mm 1 mps 622 mmHg 88%
    09:00 +1°C° 0.3 mm 1 mps 622 mmHg 87%
    10:00 +2°C° 0.3 mm 1 mps 622 mmHg 86%
    11:00 +1°C° 0.4 mm 2 mps 622 mmHg 85%
    12:00 +1°C° 0.4 mm 2 mps 622 mmHg 85%
    13:00 +1°C° 0.4 mm 2 mps 622 mmHg 84%
    14:00 +1°C° 0.7 mm 2 mps 622 mmHg 87%
    15:00 -1°C° 0.7 mm 2 mps 621 mmHg 89%
    16:00 -1°C° 0.7 mm 2 mps 621 mmHg 92%
    17:00 -2°C° 0.9 mm 2 mps 622 mmHg 93%
    18:00 -2°C° 0.9 mm 2 mps 622 mmHg 95%
    19:00 -3°C° 0.9 mm 2 mps 622 mmHg 96%
    20:00 -4°C° 0.5 mm 2 mps 622 mmHg 96%
    21:00 -4°C° 0.5 mm 2 mps 623 mmHg 97%
    22:00 -4°C° 0.5 mm 2 mps 623 mmHg 97%
    23:00 -5°C° 0.2 mm 2 mps 623 mmHg 97%

    27 March, Monday

    Time Temperature Precipitation Wind Pressure Humidity
    00:00 -5°C° 0.2 mm 2 mps 623 mmHg 97%
    01:00 -4°C° 0.2 mm 1 mps 623 mmHg 98%
    02:00 -4°C° 0.1 mm 1 mps 623 mmHg 98%
    03:00 -6°C° 0.1 mm 1 mps 623 mmHg 98%
    04:00 -6°C° 0.1 mm 1 mps 623 mmHg 98%
    05:00 -6°C° 0 mm 1 mps 623 mmHg 97%
    06:00 -7°C° 0 mm 1 mps 623 mmHg 96%
    07:00 -7°C° 0 mm 1 mps 624 mmHg 96%
    08:00 -6°C° 0 mm 2 mps 624 mmHg 91%
    09:00 -5°C° 0 mm 2 mps 625 mmHg 86%
    10:00 -3°C° 0 mm 2 mps 625 mmHg 81%
    11:00 -3°C° 0 mm 2 mps 625 mmHg 80%
    12:00 -2°C° 0 mm 2 mps 625 mmHg 78%
    13:00 -1°C° 0 mm 2 mps 625 mmHg 77%
    14:00 -2°C° 0 mm 2 mps 625 mmHg 78%
    15:00 -2°C° 0 mm 2 mps 625 mmHg 79%
    16:00 -2°C° 0 mm 3 mps 625 mmHg 80%
    17:00 -4°C° 0 mm 2 mps 624 mmHg 85%
    18:00 -5°C° 0 mm 2 mps 624 mmHg 90%
    19:00 -6°C° 0 mm 1 mps 624 mmHg 94%
    20:00 -7°C° 0 mm 1 mps 624 mmHg 95%
    21:00 -7°C° 0 mm 1 mps 624 mmHg 96%
    22:00 -8°C° 0 mm 1 mps 624 mmHg 96%
    23:00 -9°C° 0 mm 1 mps 623 mmHg 96%

    28 March, Tuesday

    Time Temperature Precipitation Wind Pressure Humidity
    00:00 -10°C° 0 mm 1 mps 623 mmHg 96%
    01:00 -11°C° 0 mm 1 mps 622 mmHg 96%
    02:00 -11°C° 0 mm 1 mps 622 mmHg 96%
    03:00 -12°C° 0 mm 1 mps 621 mmHg 96%
    04:00 -12°C° 0 mm 1 mps 621 mmHg 95%
    05:00 -11°C° 0 mm 1 mps 622 mmHg 93%
    06:00 -9°C° 0 mm 1 mps 623 mmHg 90%
    07:00 -8°C° 0 mm 1 mps 623 mmHg 88%
    08:00 -6°C° 0 mm 1 mps 624 mmHg 82%
    09:00 -3°C° 0 mm 1 mps 625 mmHg 75%
    10:00 -1°C° 0 mm 1 mps 626 mmHg 69%
    11:00 0°C° 0 mm 1 mps 626 mmHg 69%
    12:00 -1°C° 0 mm 2 mps 626 mmHg 69%
    13:00 +1°C° 0 mm 2 mps 626 mmHg 70%
    14:00 +1°C° 0.1 mm 2 mps 626 mmHg 72%
    15:00 +1°C° 0.1 mm 2 mps 626 mmHg 75%
    16:00 +1°C° 0.1 mm 2 mps 625 mmHg 77%
    17:00 -2°C° 0 mm 2 mps 625 mmHg 83%
    18:00 -2°C° 0 mm 1 mps 625 mmHg 89%
    19:00 -3°C° 0 mm 1 mps 624 mmHg 95%
    20:00 -4°C° 0 mm 1 mps 624 mmHg 95%
    21:00 -6°C° 0 mm 1 mps 624 mmHg 95%
    22:00 -7°C° 0 mm 1 mps 624 mmHg 95%
    23:00 -7°C° 0 mm 1 mps 624 mmHg 95%
    Show more